Regional Weather Roundup
Issued by NWS

Home | Current Version | Previous Version | Graphics & Text | Print | Product List | Glossary On
Versions: 1 2 3 4 5 6 7 8 9 10 11 12 13 14 15 16 17 18 19 20 21 22 23 24 25 26 27 28 29 30 31 32 33 34 35 36 37 38 39 40 41 42 43 44 45 46 47 48 49 50
000
ASUS45 KABQ 270010
RWRNM
WEATHER ROUNDUP FOR NEW MEXICO
NATIONAL WEATHER SERVICE ALBUQUERQUE NM
600 PM MDT SUN APR 26 2015

NOTE: "FAIR" MEANS FEW OR NO CLOUDS BELOW 12,000 FEET AGL WITH NO
       SIGNIFICANT WEATHER OR OBSTRUCTIONS TO VISION.

      THIS PRODUCT IS RELEASED AS TWO VERSIONS.  ONE VERSION NEAR
      THE TOP OF THE HOUR CONTAINING PRELIMINARY DATA FROM ALBUQUERQUE
      AND OTHER STATIONS.  A FINAL VERSION WITH ADDITIONAL DATA IS
      ISSUED ABOUT 10 MINUTES AFTER THE HOUR.

NMZ501-503-504-510>518-270100-
NORTHWEST PLATEAU/NORTHCENTRAL MOUNTAINS

CITY           SKY/WX    TMP DP  RH WIND       PRES   REMARKS
FARMINGTON     LGT RAIN  46  43  89 NW7       29.77R
6HR MIN TEMP:  44; 6HR MAX TEMP:  52; 6HR PCP:  0.09;

LOS ALAMOS     PTSUNNY   44  37  76 S5        29.80R
SANTA FE       CLOUDY    46  37  71 W12       29.76R
6HR MIN TEMP:  42; 6HR MAX TEMP:  49; 6HR PCP: TRACE;

TAOS           PTSUNNY   46  34  61 NW9       29.79R
ANGEL FIRE     LGT RAIN  36  33  88 E18       29.80  WCI  26

$$
NMZ402-403-502-505>509-270100-
WESTCENTRAL MOUNTAINS/SOUTHWEST MOUNTAINS

CITY           SKY/WX    TMP DP  RH WIND       PRES   REMARKS
GALLUP         CLOUDY    46  36  68 VRB3      29.83R
6HR MIN TEMP:  41; 6HR MAX TEMP:  47; 6HR PCP:  0.06;

GRANTS         CLOUDY    46  39  75 NW18G24   29.82R
SILVER CITY      N/A     54  36  50 W26G35    29.85R

$$
NMZ407-409-411-412-270100-
SOUTHERN DESERTS

CITY           SKY/WX    TMP DP  RH WIND       PRES   REMARKS
LORDSBURG      MOCLDY    55  34  44 W24G38    29.84R
DEMING         MOSUNNY   59  35  40 W23G33    29.80S
6HR MIN TEMP:  50; 6HR MAX TEMP:  61;

LAS CRUCES     SUNNY     60  32  34 W24G38    29.78R
HOLLOMAN AFB   PTSUNNY   63  32  31 W18       29.71S
ALAMOGORDO     PTSUNNY   61  28  29 W18       29.73S
T OR C         PTSUNNY   60  34  37 W21G30    29.73R
6HR MIN TEMP:  53; 6HR MAX TEMP:  62; 6HR PCP:  0.04;


$$
NMZ519>523-270100-
CENTRAL VALLEYS/CENTRAL HIGHLANDS

CITY           SKY/WX    TMP DP  RH WIND       PRES   REMARKS
ALBUQUERQUE    PTSUNNY   49  42  77 VRB3      29.77S
6HR MIN TEMP:  46; 6HR MAX TEMP:  52; 6HR PCP:  0.08;

DOUBLE EAGLE   PTSUNNY   48  39  71 NW9       29.77S
MORIARTY ARPT  RAIN      44  37  77 SW8       29.78R
6HR MIN TEMP:  40; 6HR MAX TEMP:  50; 6HR PCP:  0.09;

CLINES CORNERS PTSUNNY   43  35  73 E6        29.75S
6HR MIN TEMP:  36; 6HR MAX TEMP:  49; 6HR PCP:  0.03;

BELEN          FAIR      49  42  75 CALM      29.77S
6HR MIN TEMP:  44; 6HR MAX TEMP:  50; 6HR PCP:  0.07;

SOCORRO        LGT RAIN  50  40  70 N5        29.77R
6HR MIN TEMP:  46; 6HR MAX TEMP:  62; 6HR PCP:  0.09;


$$
NMZ524>526-539-540-270100-
SOUTHCENTRAL MOUNTAINS

CITY           SKY/WX    TMP DP  RH WIND       PRES   REMARKS
RUIDOSO        PTSUNNY   46  32  57 SW13      29.78R

$$
NMZ527>531-270100-
NORTHEAST HIGHLANDS/NORTHEAST PLAINS

CITY           SKY/WX    TMP DP  RH WIND       PRES   REMARKS
LAS VEGAS      PTSUNNY   44  33  65 SW5       29.79R
6HR MIN TEMP:  41; 6HR MAX TEMP:  51; 6HR PCP:  0.05;

RATON          TSTM      46  43  87 E16G24    29.80R
6HR MIN TEMP:  47; 6HR MAX TEMP:  60; 6HR PCP:  0.01;

CLAYTON        CLOUDY    50  46  86 NE23G30   29.79R
6HR MIN TEMP:  50; 6HR MAX TEMP:  63; 6HR PCP:  0.05;


$$
NMZ532>537-270100-
EASTCENTRAL PLAINS

CITY           SKY/WX    TMP DP  RH WIND       PRES   REMARKS
TUCUMCARI      PTSUNNY   68  27  21 SW13G20   29.66R
6HR MIN TEMP:  67; 6HR MAX TEMP:  71;

CANNON AFB     PTSUNNY   64  29  26 SE13      29.67F
6HR MIN TEMP:  61; 6HR MAX TEMP:  69; 6HR PCP: TRACE;

CLOVIS AIRPORT CLOUDY    64  27  24 SE12      29.68F

$$
NMZ028-029-538-270100-
SOUTHEAST PLAINS

CITY           SKY/WX    TMP DP  RH WIND       PRES   REMARKS
ROSWELL        MOSUNNY   67  31  26 W18G26    29.63R
6HR MIN TEMP:  67; 6HR MAX TEMP:  73;

ARTESIA        SUNNY     66  32  28 W30G38    29.65S
CARLSBAD       SUNNY     65  33  30 W28G39    29.66F
6HR MIN TEMP:  65; 6HR MAX TEMP:  78;

HOBBS          MOSUNNY   68  25  19 SW28      29.67F


$$


USA.gov is the U.S. government's official web portal to all federal, state and local government web resources and services.